CZ-6A DEB, 54303

Orbit data source: Space-Track

CZ-6A DEB, 54303 is space debris in SSO originally from a launch on Fri, 11 Nov 2022 UTC launched from the Taiyaun Space Center, China (TSC). Debris objects in space refer to the collection of defunct objects orbiting the Earth. Examples of debris include non-operational satellites, rocket bodies, and fragments generated from explosions, collisions, or faulty payload assembly.

Loading next visibility...
Identifier
54303, 2022-151AW
Orbit
SSO
Country
Flag of CNCN / PRC
Related business
Manufacturer
SAST
Mission
Spacecraft
Bus & Motor
Unknown
Mass
Unknown
Launch date (UTC)
2022-11-11 (4 years ago)
Launch vehicle
Unknown
Launch site
Taiyaun Space Center, China (TSC)
Object type
Payload
Rocket body
Debris
Shape & HBR
Unknown shape, 0.2 m
Radar Cross Section
Medium (>0.1 m² and <1 m²)

Expand to show TLE details & history
Last TLE update: 2 days ago

TLE from 2 days ago
0 CZ-6A DEB
1 54303U 22151AW  26170.97061530 -.00000085  00000-0 -23565-4 0  9993
2 54303  98.8546 172.3393 0046496 343.0772  16.8845 14.09113789184749
Epoch: 2026-06-19T23:17Z
TLE epoch observation values (Epoch: 2026-06-19T23:17:41.161Z)
Latitude
-0.00004°
Longitude
-85.27415°
Altitude
833.093 km
Speed
7.453 km/s
True Right ascension
11h 29m 21s
True Declination
0° 00' 00"
Sunlit
Object was in daylight at epoch
Visualization orbit readout
Latitude
Unknown
Longitude
Unknown
Altitude
Unknown
Speed
Unknown
Apparent Right ascension
Unknown
Apparent Declination
Unknown
Sunlit
N/A
Visualization observer readout
Local Sidereal Time
21:33:14
Azimuth
Unknown
Elevation
Unknown
Doppler factor
Unknown
Orbital elements
Apogee altitude
893.238 km
Perigee altitude
825.933 km
Semi-major axis
7,237.723 km
Eccentricity
0.00465
Inclination
98.8546°
RAAN
172.3393°
Arg. of periapsis
343.0772°
True anomaly
17.04011°
Mean anomaly
16.8845°
Eccentric anomaly
16.96222°
Mean motion
3.52485 °/min
Orbital period
102.13 mins
BSTAR
-0.000023565
Loading maneuver chart data...
Computing Atmospheric mass density...
Loading historical data...
Loading historical data...
Loading historical data...
Loading historical data...
Loading historical data...
Loading historical data...
Loading historical data...

Documentation

Showing up to 5 results
|